DHK101 EVRA-EGCC

Flight info

Callsign DHK101
Flight time 2h 23m
Altitude 32000
Route VALED M869 VEDEN DCT GOREV DCT SURAT DCT TILNI
Aircraft B77L/H-SDE1E2E3FGHIJ2J3J4J5M1RWXY/LB1D1

Departure

Time 2026-05-04 16:28
Airport Riga International Airport (EVRA)

Arrival

Time 2026-05-04 18:51
Airport Manchester Airport (EGCC)
Time Latitude Longitude Altitude Speed Heading
2026-05-04 16:12 56.93017 23.97908 49 ft 0 kts
2026-05-04 16:20 56.92990 23.97906 44 ft 4 kts 354°
2026-05-04 16:20 56.92941 23.97940 43 ft 4 kts 311°
2026-05-04 16:21 56.92929 23.97980 44 ft 0 kts 275°
2026-05-04 16:23 56.92931 23.97952 43 ft 7 kts 275°
2026-05-04 16:24 56.93319 23.97574 49 ft 26 kts
2026-05-04 16:25 56.93407 23.97583 49 ft 1 kts
2026-05-04 16:26 56.93434 23.97280 48 ft 17 kts 184°
2026-05-04 16:26 56.92866 23.97194 50 ft 99 kts 185°
2026-05-04 16:27 56.90818 23.96896 309 ft 165 kts 181°
2026-05-04 16:28 56.87411 23.96638 1922 ft 164 kts 191°
2026-05-04 16:28 56.84039 23.95578 3471 ft 169 kts 232°
2026-05-04 16:29 56.80925 23.86559 5298 ft 239 kts 237°
2026-05-04 16:30 56.77884 23.79333 8084 ft 244 kts 235°
2026-05-04 16:31 56.75628 23.74589 9846 ft 251 kts 230°
2026-05-04 16:31 56.71554 23.66964 10845 ft 318 kts 229°
2026-05-04 16:32 56.66631 23.57745 12865 ft 349 kts 229°
2026-05-04 16:33 56.63217 23.51340 14581 ft 356 kts 229°
2026-05-04 16:33 56.59814 23.44711 16197 ft 361 kts 232°
2026-05-04 16:34 56.57742 23.36639 17448 ft 366 kts 262°
2026-05-04 16:34 56.57645 23.32003 18242 ft 370 kts 271°
2026-05-04 16:35 56.60168 23.18536 20348 ft 382 kts 287°
2026-05-04 16:35 56.62622 23.04679 22390 ft 387 kts 282°
2026-05-04 16:36 56.63352 23.00008 23052 ft 389 kts 282°
2026-05-04 16:36 56.64869 22.90481 24201 ft 395 kts 282°
2026-05-04 16:37 56.66433 22.80819 25263 ft 400 kts 282°
2026-05-04 16:37 56.67224 22.75945 25789 ft 403 kts 282°
2026-05-04 16:37 56.68816 22.66085 26851 ft 409 kts 282°
2026-05-04 16:38 56.70411 22.56167 27868 ft 413 kts 281°
2026-05-04 16:39 56.71334 22.40826 29007 ft 409 kts 256°
2026-05-04 16:39 56.69820 22.30801 29824 ft 413 kts 254°
2026-05-04 16:40 56.68306 22.20719 30601 ft 414 kts 254°
2026-05-04 16:40 56.66808 22.10604 31184 ft 418 kts 255°
2026-05-04 16:41 56.65292 22.00352 31874 ft 421 kts 255°
2026-05-04 16:41 56.62984 21.84841 32802 ft 425 kts 255°
2026-05-04 16:42 56.60636 21.69215 33692 ft 429 kts 255°
2026-05-04 16:43 56.59050 21.58746 33825 ft 434 kts 255°
2026-05-04 16:43 56.56661 21.43098 33849 ft 425 kts 255°
2026-05-04 16:45 56.51999 21.12082 33859 ft 426 kts 260°
2026-05-04 16:46 56.51473 20.85286 33854 ft 427 kts 270°
2026-05-04 16:47 56.51649 20.65293 33885 ft 427 kts 269°
2026-05-04 16:48 56.51736 20.50358 33834 ft 427 kts 269°
2026-05-04 16:49 56.51833 20.30731 33832 ft 424 kts 269°
2026-05-04 16:50 56.51900 20.09497 33835 ft 421 kts 269°
2026-05-04 16:51 56.52103 19.93668 33840 ft 421 kts 270°
2026-05-04 16:52 56.52417 19.72433 33833 ft 422 kts 270°
2026-05-04 16:53 56.52609 19.56456 33831 ft 423 kts 270°
2026-05-04 16:54 56.52832 19.35145 33830 ft 425 kts 269°
2026-05-04 16:55 56.53102 19.02836 33829 ft 429 kts 269°
2026-05-04 16:56 56.53396 18.75901 33831 ft 430 kts 271°
2026-05-04 16:57 56.53756 18.59653 33827 ft 430 kts 271°
2026-05-04 16:58 56.54170 18.37984 33816 ft 429 kts 270°
2026-05-04 17:00 56.54696 18.05592 33820 ft 430 kts 270°
2026-05-04 17:01 56.55072 17.78423 33816 ft 431 kts 270°
2026-05-04 17:02 56.55330 17.56725 33819 ft 432 kts 270°
2026-05-04 17:03 56.55500 17.40357 33817 ft 433 kts 270°
2026-05-04 17:03 56.55649 17.23975 33816 ft 434 kts 270°
2026-05-04 17:04 56.55801 17.03932 33815 ft 434 kts 270°
2026-05-04 17:05 56.55930 16.82015 33826 ft 434 kts 270°
2026-05-04 17:06 56.56002 16.65597 33827 ft 434 kts 270°
2026-05-04 17:07 56.56047 16.51041 33826 ft 433 kts 269°
2026-05-04 17:07 56.56073 16.38337 33835 ft 433 kts 269°
2026-05-04 17:08 56.56087 16.21925 33830 ft 434 kts 269°
2026-05-04 17:09 56.56085 16.10963 33834 ft 435 kts 269°
2026-05-04 17:09 56.56072 15.99989 33829 ft 435 kts 269°
2026-05-04 17:10 56.55999 15.72580 33834 ft 437 kts 269°
2026-05-04 17:11 56.55953 15.61535 33847 ft 439 kts 269°
2026-05-04 17:12 56.55865 15.44905 33845 ft 441 kts 269°
2026-05-04 17:13 56.55667 15.17067 33861 ft 442 kts 269°
2026-05-04 17:14 56.55464 14.94705 33872 ft 444 kts 269°
2026-05-04 17:15 56.55284 14.77876 33869 ft 445 kts 269°
2026-05-04 17:16 56.55008 14.55410 33868 ft 445 kts 269°
2026-05-04 17:17 56.54694 14.33027 33875 ft 445 kts 269°
2026-05-04 17:18 56.54338 14.10590 33895 ft 445 kts 268°
2026-05-04 17:19 56.53943 13.88231 33893 ft 445 kts 268°
2026-05-04 17:20 56.53505 13.65770 33896 ft 446 kts 268°
2026-05-04 17:20 56.53150 13.48919 33909 ft 446 kts 268°
2026-05-04 17:21 56.52644 13.26538 33913 ft 446 kts 268°
2026-05-04 17:22 56.52375 13.15307 33916 ft 446 kts 268°
2026-05-04 17:23 56.51806 12.92888 33935 ft 445 kts 267°
2026-05-04 17:24 56.51403 12.77891 33925 ft 445 kts 267°
2026-05-04 17:25 56.50821 12.57346 33932 ft 445 kts 267°
2026-05-04 17:26 56.50193 12.36345 33929 ft 446 kts 267°
2026-05-04 17:27 56.49297 12.08281 33923 ft 448 kts 266°
2026-05-04 17:28 56.48531 11.85747 33932 ft 449 kts 266°
2026-05-04 17:29 56.47304 11.51943 33934 ft 448 kts 266°
2026-05-04 17:31 56.46233 11.23928 33927 ft 445 kts 266°
2026-05-04 17:32 56.45126 10.96137 33949 ft 444 kts 266°
2026-05-04 17:33 56.44191 10.73861 33961 ft 445 kts 265°
2026-05-04 17:34 56.43215 10.51551 33966 ft 446 kts 265°
2026-05-04 17:35 56.41933 10.23583 33926 ft 445 kts 265°
2026-05-04 17:36 56.41404 10.12432 33949 ft 446 kts 265°
2026-05-04 17:36 56.40865 10.01260 33953 ft 447 kts 265°
2026-05-04 17:37 56.40313 9.90059 33958 ft 448 kts 265°
2026-05-04 17:37 56.39750 9.78833 33958 ft 449 kts 265°
2026-05-04 17:38 56.39176 9.67602 33965 ft 449 kts 265°
2026-05-04 17:38 56.38593 9.56381 33962 ft 449 kts 265°
2026-05-04 17:39 56.37700 9.39563 33969 ft 448 kts 264°
2026-05-04 17:39 56.37096 9.28450 33966 ft 448 kts 264°
2026-05-04 17:40 56.36480 9.17278 33971 ft 447 kts 264°
2026-05-04 17:40 56.35854 9.06124 33965 ft 447 kts 264°
2026-05-04 17:41 56.35219 8.94997 33969 ft 446 kts 264°
2026-05-04 17:41 56.34575 8.83880 33970 ft 446 kts 264°
2026-05-04 17:42 56.33922 8.72776 33978 ft 445 kts 264°
2026-05-04 17:42 56.33258 8.61676 33982 ft 446 kts 264°
2026-05-04 17:43 56.32584 8.50574 33989 ft 446 kts 264°
2026-05-04 17:43 56.31900 8.39473 33993 ft 446 kts 264°
2026-05-04 17:44 56.31206 8.28369 33994 ft 446 kts 264°
2026-05-04 17:44 56.30502 8.17270 33962 ft 446 kts 264°
2026-05-04 17:45 56.29808 8.06481 33989 ft 447 kts 263°
2026-05-04 17:45 56.29080 7.95330 34002 ft 449 kts 263°
2026-05-04 17:46 56.28340 7.84143 33996 ft 451 kts 263°
2026-05-04 17:46 56.27699 7.74588 33998 ft 452 kts 263°
2026-05-04 17:47 56.27163 7.66695 34001 ft 452 kts 263°
2026-05-04 17:47 56.26724 7.60311 34001 ft 452 kts 263°
2026-05-04 17:48 56.25999 7.49800 34001 ft 452 kts 263°
2026-05-04 17:48 56.25349 7.40476 34000 ft 452 kts 263°
2026-05-04 17:49 56.24558 7.29265 34002 ft 451 kts 263°
2026-05-04 17:49 56.23757 7.18088 34002 ft 450 kts 263°
2026-05-04 17:50 56.22947 7.06932 34004 ft 449 kts 263°
2026-05-04 17:50 56.22128 6.95795 34005 ft 449 kts 263°
2026-05-04 17:51 56.21301 6.84679 34005 ft 449 kts 263°
2026-05-04 17:51 56.20468 6.73631 34004 ft 448 kts 263°
2026-05-04 17:52 56.19621 6.62532 34007 ft 448 kts 263°
2026-05-04 17:52 56.18764 6.51433 34008 ft 449 kts 262°
2026-05-04 17:53 56.17896 6.40336 34008 ft 449 kts 262°
2026-05-04 17:53 56.17019 6.29251 34011 ft 449 kts 262°
2026-05-04 17:54 56.16132 6.18160 34006 ft 449 kts 262°
2026-05-04 17:54 56.15232 6.07051 33997 ft 450 kts 262°
2026-05-04 17:55 56.14322 5.95933 34012 ft 451 kts 262°
2026-05-04 17:55 56.13404 5.84849 34017 ft 453 kts 262°
2026-05-04 17:56 56.12467 5.73663 34015 ft 454 kts 262°
2026-05-04 17:56 56.11517 5.62456 34013 ft 455 kts 262°
2026-05-04 17:57 56.10556 5.51235 34013 ft 455 kts 262°
2026-05-04 17:57 56.09584 5.40010 34012 ft 455 kts 262°
2026-05-04 17:58 56.08605 5.28832 34012 ft 454 kts 262°
2026-05-04 17:58 56.07618 5.17682 34013 ft 453 kts 261°
2026-05-04 17:59 56.06622 5.06544 34013 ft 453 kts 261°
2026-05-04 18:00 56.05111 4.89872 34016 ft 452 kts 261°
2026-05-04 18:00 56.04099 4.78857 34020 ft 452 kts 261°
2026-05-04 18:01 56.03070 4.67761 34022 ft 452 kts 261°
2026-05-04 18:01 56.02031 4.56676 34018 ft 452 kts 261°
2026-05-04 18:02 56.00452 4.40036 34023 ft 453 kts 261°
2026-05-04 18:02 55.99386 4.28939 34021 ft 453 kts 261°
2026-05-04 18:03 55.98310 4.17846 34022 ft 453 kts 261°
2026-05-04 18:03 55.97223 4.06755 34021 ft 453 kts 261°
2026-05-04 18:04 55.96135 3.95752 34018 ft 453 kts 260°
2026-05-04 18:05 55.94473 3.79147 34024 ft 453 kts 260°
2026-05-04 18:05 55.93353 3.68086 34027 ft 453 kts 260°
2026-05-04 18:06 55.91590 3.51534 34030 ft 453 kts 256°
2026-05-04 18:06 55.89518 3.40936 34038 ft 454 kts 249°
2026-05-04 18:07 55.87114 3.30553 34030 ft 453 kts 249°
2026-05-04 18:07 55.84723 3.20167 34028 ft 453 kts 249°
2026-05-04 18:08 55.82337 3.09778 34027 ft 453 kts 249°
2026-05-04 18:08 55.79954 2.99422 34027 ft 452 kts 249°
2026-05-04 18:09 55.75177 2.78813 34004 ft 452 kts 249°
2026-05-04 18:10 55.72766 2.68486 34045 ft 453 kts 248°
2026-05-04 18:10 55.70338 2.58139 34044 ft 455 kts 248°
2026-05-04 18:11 55.67890 2.47757 34037 ft 457 kts 248°
2026-05-04 18:11 55.65424 2.37350 34044 ft 458 kts 248°
2026-05-04 18:12 55.62946 2.26939 34026 ft 459 kts 248°
2026-05-04 18:12 55.60457 2.16538 34039 ft 458 kts 248°
2026-05-04 18:13 55.57980 2.06234 34040 ft 458 kts 248°
2026-05-04 18:14 55.54233 1.90738 34026 ft 457 kts 248°
2026-05-04 18:14 55.51727 1.80434 34020 ft 456 kts 248°
2026-05-04 18:15 55.46686 1.59855 34040 ft 459 kts 248°
2026-05-04 18:16 55.44134 1.49511 34034 ft 461 kts 248°
2026-05-04 18:16 55.41565 1.39146 34028 ft 462 kts 247°
2026-05-04 18:17 55.37706 1.23672 34021 ft 462 kts 247°
2026-05-04 18:18 55.33818 1.08184 34016 ft 461 kts 247°
2026-05-04 18:18 55.31222 0.97908 34021 ft 460 kts 247°
2026-05-04 18:19 55.27340 0.82625 34016 ft 458 kts 247°
2026-05-04 18:19 55.24734 0.72420 34011 ft 459 kts 247°
2026-05-04 18:20 55.22106 0.62179 34025 ft 462 kts 247°
2026-05-04 18:20 55.19451 0.51879 34023 ft 465 kts 246°
2026-05-04 18:21 55.16775 0.41550 34027 ft 467 kts 246°
2026-05-04 18:21 55.14078 0.31184 34022 ft 468 kts 246°
2026-05-04 18:22 55.11374 0.20840 34022 ft 467 kts 246°
2026-05-04 18:22 55.08683 0.10593 34018 ft 466 kts 246°
2026-05-04 18:23 55.05973 0.00321 34021 ft 465 kts 246°
2026-05-04 18:23 55.03264 -0.09901 34016 ft 464 kts 246°
2026-05-04 18:24 55.00549 -0.20101 34004 ft 463 kts 246°
2026-05-04 18:24 54.97831 -0.30268 34013 ft 464 kts 246°
2026-05-04 18:25 54.95095 -0.40455 34027 ft 465 kts 246°
2026-05-04 18:25 54.92355 -0.50612 34017 ft 467 kts 246°
2026-05-04 18:26 54.89577 -0.60866 34013 ft 469 kts 246°
2026-05-04 18:26 54.86784 -0.71126 34010 ft 470 kts 246°
2026-05-04 18:27 54.83983 -0.81366 34008 ft 470 kts 246°
2026-05-04 18:27 54.81176 -0.91590 34006 ft 469 kts 245°
2026-05-04 18:28 54.78361 -1.01791 34008 ft 469 kts 245°
2026-05-04 18:28 54.75541 -1.11971 34008 ft 468 kts 245°
2026-05-04 18:29 54.74129 -1.17052 33618 ft 473 kts 245°
2026-05-04 18:29 54.72682 -1.22247 32778 ft 480 kts 245°
2026-05-04 18:29 54.71251 -1.27372 32028 ft 478 kts 245°
2026-05-04 18:29 54.69811 -1.32516 31523 ft 471 kts 245°
2026-05-04 18:30 54.66980 -1.42594 30499 ft 461 kts 245°
2026-05-04 18:30 54.65583 -1.47553 29992 ft 457 kts 245°
2026-05-04 18:30 54.64197 -1.52463 29418 ft 452 kts 245°
2026-05-04 18:31 54.62827 -1.57308 28907 ft 447 kts 245°
2026-05-04 18:31 54.61470 -1.62099 28404 ft 442 kts 245°
2026-05-04 18:31 54.60126 -1.66832 27904 ft 437 kts 245°
2026-05-04 18:31 54.58795 -1.71515 27399 ft 433 kts 245°
2026-05-04 18:32 54.57473 -1.76153 26909 ft 429 kts 245°
2026-05-04 18:32 54.56066 -1.80626 26390 ft 422 kts 235°
2026-05-04 18:32 54.53994 -1.84157 25936 ft 420 kts 216°
2026-05-04 18:32 54.51410 -1.86524 25406 ft 425 kts 200°
2026-05-04 18:33 54.48517 -1.87730 24893 ft 432 kts 191°
2026-05-04 18:33 54.45538 -1.88593 24326 ft 434 kts 190°
2026-05-04 18:33 54.42566 -1.89431 23773 ft 432 kts 190°
2026-05-04 18:33 54.39605 -1.90291 23145 ft 431 kts 191°
2026-05-04 18:34 54.36657 -1.91179 22537 ft 428 kts 191°
2026-05-04 18:34 54.33733 -1.92083 21986 ft 422 kts 191°
2026-05-04 18:34 54.30913 -1.92964 21445 ft 414 kts 191°
2026-05-04 18:34 54.28109 -1.93839 20924 ft 406 kts 191°
2026-05-04 18:35 54.25337 -1.94726 20405 ft 403 kts 194°
2026-05-04 18:35 54.22761 -1.96516 19875 ft 399 kts 214°
2026-05-04 18:35 54.20732 -1.99608 19397 ft 388 kts 232°
2026-05-04 18:35 54.19196 -2.03380 18936 ft 387 kts 237°
2026-05-04 18:36 54.17683 -2.07202 18451 ft 387 kts 236°
2026-05-04 18:36 54.16676 -2.09684 18087 ft 382 kts 236°
2026-05-04 18:36 54.15157 -2.13364 17549 ft 376 kts 234°
2026-05-04 18:36 54.13576 -2.16897 17062 ft 374 kts 233°
2026-05-04 18:37 54.11966 -2.20357 16565 ft 373 kts 232°
2026-05-04 18:37 54.10354 -2.23809 16104 ft 369 kts 232°
2026-05-04 18:37 54.08782 -2.27196 15629 ft 362 kts 233°
2026-05-04 18:37 54.06718 -2.31681 15016 ft 362 kts 233°
2026-05-04 18:38 54.05672 -2.33956 14715 ft 361 kts 233°
2026-05-04 18:38 54.04133 -2.37296 14259 ft 355 kts 233°
2026-05-04 18:38 54.02457 -2.40357 13793 ft 356 kts 218°
2026-05-04 18:38 54.00223 -2.42210 13314 ft 365 kts 197°
2026-05-04 18:39 53.97679 -2.42770 12830 ft 373 kts 179°
2026-05-04 18:39 53.95122 -2.42226 12378 ft 368 kts 173°
2026-05-04 18:39 53.92603 -2.41532 11875 ft 365 kts 173°
2026-05-04 18:39 53.90138 -2.40850 11409 ft 362 kts 173°
2026-05-04 18:40 53.87634 -2.40175 10939 ft 358 kts 173°
2026-05-04 18:40 53.85211 -2.39538 10492 ft 355 kts 173°
2026-05-04 18:40 53.82780 -2.38913 10036 ft 352 kts 173°
2026-05-04 18:40 53.80379 -2.38302 9693 ft 341 kts 173°
2026-05-04 18:41 53.78067 -2.37718 9272 ft 330 kts 173°
2026-05-04 18:41 53.75841 -2.37159 8948 ft 314 kts 174°
2026-05-04 18:41 53.73738 -2.36629 8472 ft 297 kts 174°
2026-05-04 18:41 53.71750 -2.36132 7987 ft 281 kts 174°
2026-05-04 18:42 53.69861 -2.35663 7508 ft 269 kts 173°
2026-05-04 18:42 53.68029 -2.35192 7046 ft 264 kts 169°
2026-05-04 18:42 53.66379 -2.33884 6842 ft 264 kts 137°
2026-05-04 18:42 53.65157 -2.31618 6719 ft 260 kts 131°
2026-05-04 18:43 53.63981 -2.29335 6512 ft 257 kts 131°
2026-05-04 18:43 53.62803 -2.27059 6270 ft 257 kts 131°
2026-05-04 18:43 53.61623 -2.24778 6081 ft 258 kts 131°
2026-05-04 18:43 53.60439 -2.22498 5869 ft 259 kts 131°
2026-05-04 18:44 53.59253 -2.20222 5674 ft 259 kts 131°
2026-05-04 18:44 53.58465 -2.18703 5538 ft 264 kts 131°
2026-05-04 18:44 53.56875 -2.15633 5176 ft 252 kts 131°
2026-05-04 18:44 53.55746 -2.13466 4977 ft 244 kts 131°
2026-05-04 18:45 53.54622 -2.11309 4792 ft 246 kts 131°
2026-05-04 18:45 53.53521 -2.09194 4583 ft 234 kts 131°
2026-05-04 18:45 53.52488 -2.07224 4371 ft 225 kts 131°
2026-05-04 18:45 53.51448 -2.05238 4206 ft 226 kts 131°
2026-05-04 18:46 53.50389 -2.03299 4006 ft 224 kts 141°
2026-05-04 18:46 53.49021 -2.02242 3811 ft 216 kts 179°
2026-05-04 18:46 53.47598 -2.02757 3641 ft 210 kts 217°
2026-05-04 18:46 53.46551 -2.04471 3601 ft 217 kts 232°
2026-05-04 18:47 53.45574 -2.06447 3247 ft 218 kts 232°
2026-05-04 18:47 53.44636 -2.08383 2953 ft 209 kts 232°
2026-05-04 18:47 53.43748 -2.10223 2743 ft 197 kts 233°
2026-05-04 18:47 53.42918 -2.11942 2433 ft 184 kts 233°
2026-05-04 18:48 53.42144 -2.13540 2177 ft 167 kts 235°
2026-05-04 18:48 53.41420 -2.15042 1980 ft 166 kts 234°
2026-05-04 18:48 53.40712 -2.16501 1759 ft 156 kts 235°
2026-05-04 18:48 53.40045 -2.17879 1542 ft 150 kts 236°
2026-05-04 18:49 53.39387 -2.19239 1330 ft 151 kts 236°
2026-05-04 18:49 53.38716 -2.20602 1137 ft 153 kts 235°
2026-05-04 18:49 53.38050 -2.21989 941 ft 153 kts 234°
2026-05-04 18:49 53.37411 -2.23354 698 ft 148 kts 232°
2026-05-04 18:50 53.36765 -2.24664 504 ft 145 kts 230°
2026-05-04 18:50 53.36109 -2.25983 306 ft 145 kts 230°
2026-05-04 18:50 53.35504 -2.27231 254 ft 130 kts 231°
2026-05-04 18:50 53.35044 -2.28177 237 ft 78 kts 231°
2026-05-04 18:51 53.34818 -2.28641 239 ft 40 kts 231°
2026-05-04 18:51 53.34731 -2.28826 227 ft 15 kts 231°
2026-05-04 18:51 53.34660 -2.28972 227 ft 17 kts 231°
2026-05-04 18:51 53.34578 -2.29136 223 ft 19 kts 229°
2026-05-04 18:52 53.34579 -2.29316 219 ft 17 kts 319°
2026-05-04 18:52 53.34692 -2.29306 224 ft 18 kts 32°
2026-05-04 18:52 53.34779 -2.29170 221 ft 15 kts 51°
2026-05-04 18:52 53.34845 -2.29037 227 ft 15 kts 49°
2026-05-04 18:53 53.34903 -2.28934 229 ft 0 kts 45°
2026-05-04 18:55 53.34906 -2.28929 228 ft 2 kts 45°
2026-05-04 18:56 53.34939 -2.28874 230 ft 17 kts 45°
2026-05-04 18:56 53.35034 -2.28707 237 ft 20 kts 46°
2026-05-04 18:56 53.35123 -2.28526 235 ft 21 kts 51°
2026-05-04 18:56 53.35215 -2.28338 236 ft 21 kts 51°
2026-05-04 18:57 53.35331 -2.28194 238 ft 21 kts 24°
2026-05-04 18:57 53.35472 -2.28138 239 ft 22 kts 19°
2026-05-04 18:57 53.35585 -2.27978 243 ft 22 kts 50°
2026-05-04 18:57 53.35714 -2.27880 250 ft 22 kts
2026-05-04 18:58 53.35750 -2.27874 252 ft 0 kts
2026-05-04 19:00 53.35767 -2.27871 253 ft 6 kts
2026-05-04 19:00 53.35838 -2.27859 257 ft 14 kts
2026-05-04 19:00 53.35960 -2.27869 260 ft 22 kts 336°
2026-05-04 19:01 53.36087 -2.28042 260 ft 23 kts 319°
2026-05-04 19:01 53.36202 -2.28230 260 ft 23 kts 315°
2026-05-04 19:01 53.36310 -2.28415 260 ft 21 kts 314°
2026-05-04 19:01 53.36436 -2.28517 260 ft 20 kts 322°
2026-05-04 19:02 53.36535 -2.28684 260 ft 20 kts 314°
2026-05-04 19:02 53.36621 -2.28787 259 ft 14 kts 358°
2026-05-04 19:02 53.36656 -2.28714 259 ft 0 kts 110°
2026-05-04 19:02 53.36642 -2.28693 260 ft 6 kts 152°
2026-05-04 19:03 53.36606 -2.28647 260 ft 5 kts 134°
2026-05-04 19:03 53.36600 -2.28636 260 ft 0 kts 134°